Location: Grainger
(51.5000°N, 113.3333°W)
Time: 03:10:49
(UTC+00:00)

Envisat - Pass Details

Date: 02 June 2023
Orbit: 763 x 764 km, 98.2° (Epoch: 22 September)

Event Time Altitude Azimuth Distance (km) Brightness Sun altitude
Rises 09:44:23 0° 32° (NNE) 3,241 8.6 -10.8°
Reaches altitude 10° 09:49:19 10° 74° (ENE) 2,306 6.2 -10.3°
Maximum altitude 09:50:01 10° 82° (E) 2,287 6.1 -10.3°
Drops below altitude 10° 09:50:42 10° 90° (E) 2,304 5.9 -10.2°
Sets 09:55:35 0° 133° (SE) 3,222 6.1 -9.8°
